Weather History for KNGP - October, 2012

Change the Weather History Date:

Thursday, October 11, 2012

  Actual Average Record
Temperature  
Mean Temperature 82 °F -  
Max Temperature 89 °F 80 °F 91 °F (2005)
Min Temperature 77 °F 66 °F 60 °F (2000)
Cooling Degree Days 17    
Growing Degree Days 32 (Base 50)    
Moisture  
Dew Point 76 °F    
Average Humidity 85    
Maximum Humidity 94    
Minimum Humidity 67    
Precipitation  
Precipitation 0.01 in - - ()
Sea Level Pressure  
Sea Level Pressure 30.06 in    
Wind  
Wind Speed 12 mph (SE)    
Max Wind Speed 21 mph    
Max Gust Speed 29 mph    
Visibility 10 miles    
Events Rain    
Averages and records for this station are not official NWS values.
T = Trace of Precipitation, MM = Missing Value Source: NWS Daily Summary

Daily Weather History Graph

Daily Weather History Graph

Search for Another Location

Airport or City:

Trip Planner

Search our weather history database for the weather conditions in past years. The results will help you decide how hot, cold, wet, or windy it might be!

Date:

Astronomy

Oct. 11, 2012 Rise Set
Actual Time 7:27 AM CDT 7:03 PM CDT
Civil Twilight 7:03 AM CDT 7:27 PM CDT
Nautical Twilight 6:36 AM CDT 7:54 PM CDT
Astronomical Twilight 6:09 AM CDT 8:21 PM CDT
Moon 3:27 AM CDT (10/11) 4:23 PM CDT (10/11)
Length of Visible Light 12h 23m
Length of Day
11h 36m
Waning Crescent, 18% of the Moon is Illuminated
Oct 11
Waning Crescent
Oct 15
New
Oct 21
First Quarter
Oct 29
Full
Nov 6
Last Quarter

Hourly Weather History & Observations

Time (CDT) Temp. Heat Index Dew Point Humidity Pressure Visibility Wind Dir Wind Speed Gust Speed Precip Events Conditions
12:56 AM 80.1 °F 85.8 °F 77.0 °F 90% 30.03 in 10.0 mi SE 10.4 mph - N/A   Clear
1:56 AM 80.1 °F 86.4 °F 78.1 °F 94% 30.03 in 10.0 mi SE 10.4 mph - N/A   Scattered Clouds
2:56 AM 80.1 °F 86.4 °F 78.1 °F 94% 30.02 in 10.0 mi SSE 10.4 mph - N/A   Scattered Clouds
3:15 AM 80.6 °F 87.1 °F 77.0 °F 89% 30.02 in 10.0 mi SE 11.5 mph - N/A   Mostly Cloudy
3:40 AM 80.6 °F 87.1 °F 77.0 °F 89% 30.02 in 10.0 mi SE 10.4 mph - N/A   Scattered Clouds
3:56 AM 80.1 °F 85.8 °F 77.0 °F 90% 30.02 in 10.0 mi SE 10.4 mph - N/A   Partly Cloudy
4:56 AM 79.0 °F - 77.0 °F 94% 30.02 in 10.0 mi SE 8.1 mph - N/A   Clear
5:56 AM 79.0 °F - 77.0 °F 94% 30.02 in 10.0 mi SE 9.2 mph - N/A   Clear
6:56 AM 79.0 °F - 75.9 °F 90% 30.04 in 10.0 mi ESE 10.4 mph - N/A   Mostly Cloudy
7:41 AM 80.6 °F 87.1 °F 77.0 °F 89% 30.05 in 9.0 mi SE 10.4 mph - 0.00 in Rain Light Rain
7:56 AM 80.1 °F 85.8 °F 77.0 °F 90% 30.06 in 10.0 mi SE 11.5 mph - 0.00 in   Mostly Cloudy
8:16 AM 77.0 °F - 75.2 °F 94% 30.06 in 10.0 mi SSE 10.4 mph - 0.00 in Rain Light Rain
8:24 AM 77.0 °F - 75.2 °F 94% 30.07 in 10.0 mi SE 10.4 mph - 0.00 in   Mostly Cloudy
8:44 AM 78.8 °F - 75.2 °F 89% 30.07 in 10.0 mi SSE 11.5 mph - 0.00 in Rain Light Rain
8:56 AM 77.0 °F - 75.0 °F 94% 30.08 in 7.0 mi SE 10.4 mph - 0.00 in Rain Light Rain
9:15 AM 78.8 °F - 75.2 °F 89% 30.08 in 10.0 mi SE 8.1 mph - 0.00 in   Mostly Cloudy
9:56 AM 81.0 °F 89.2 °F 79.0 °F 94% 30.09 in 10.0 mi SSE 11.5 mph - 0.00 in   Mostly Cloudy
10:56 AM 84.9 °F 95.3 °F 77.0 °F 77% 30.11 in 10.0 mi SE 16.1 mph - 0.01 in   Mostly Cloudy
11:56 AM 86.0 °F 96.9 °F 77.0 °F 74% 30.11 in 10.0 mi SE 20.7 mph - N/A   Mostly Cloudy
12:56 PM 87.1 °F 97.3 °F 75.9 °F 69% 30.09 in 10.0 mi SE 19.6 mph 26.5 mph N/A   Scattered Clouds
1:56 PM 86.0 °F 95.1 °F 75.0 °F 70% 30.07 in 10.0 mi SE 19.6 mph 28.8 mph N/A   Mostly Cloudy
2:56 PM 86.0 °F 93.8 °F 73.9 °F 67% 30.06 in 10.0 mi SE 19.6 mph 25.3 mph N/A   Scattered Clouds
3:56 PM 86.0 °F 95.1 °F 75.0 °F 70% 30.06 in 10.0 mi SE 20.7 mph 25.3 mph N/A   Scattered Clouds
4:56 PM 84.0 °F 91.2 °F 73.9 °F 72% 30.05 in 10.0 mi SE 18.4 mph 26.5 mph N/A   Scattered Clouds
5:56 PM 82.9 °F 90.2 °F 75.0 °F 77% 30.04 in 10.0 mi SE 16.1 mph 23.0 mph N/A   Scattered Clouds
6:56 PM 81.0 °F 86.7 °F 75.0 °F 82% 30.04 in 10.0 mi SE 13.8 mph - N/A   Scattered Clouds
7:56 PM 80.1 °F 85.1 °F 75.0 °F 85% 30.05 in 10.0 mi ESE 16.1 mph - N/A   Scattered Clouds
8:56 PM 80.1 °F 84.5 °F 73.9 °F 81% 30.06 in 10.0 mi SE 17.3 mph 24.2 mph N/A   Partly Cloudy
9:56 PM 79.0 °F - 73.9 °F 84% 30.09 in 10.0 mi ESE 15.0 mph - N/A   Clear
10:56 PM 79.0 °F - 73.0 °F 82% 30.09 in 10.0 mi SE 13.8 mph - N/A   Clear
11:56 PM 79.0 °F - 75.0 °F 88% 30.08 in 10.0 mi SE 12.7 mph - N/A   Clear